Location: *
(43.6979°S, 179.9153°W)
Time: 12:37:31
(UTC+00:00)

Daily predictions for brighter satellites

Satellite Brightness Start Highest point End
(mag) Time Altitude Azimuth Time Altitude Azimuth Time Altitude Azimuth
Okean O Rocket 4.4 15:55:39 10° ENE 15:57:34 16° E 15:57:34 16° E
USA 267 3.9 15:53:56 10° SE 15:58:32 49° ESE 15:58:32 49° ESE
ATLAS 2AS CENTAUR R/B 4.4 16:30:06 17° S 16:30:06 17° S 16:32:04 10° SSE
CZ-4C R/B 2.9 16:26:48 76° N 16:27:28 83° ENE 16:34:35 10° SE
Cosmos 2297 Rocket 3.5 16:32:24 29° SSE 16:34:13 36° SE 16:39:26 10° ENE
USA 234 3.3 16:28:48 10° ENE 16:35:19 70° SE 16:36:06 64° S
Cosmos 2279 Rocket 3.8 16:49:32 75° SW 16:50:02 82° W 16:56:20 10° N
Lacrosse 4 Rocket 3.0 16:53:22 29° NNE 16:53:22 29° NNE 16:55:36 10° NNE
BREEZE-M DEB (TANK) 4.3 16:52:50 23° ENE 16:52:50 23° ENE 16:53:57 10° ENE
Envisat 3.9 16:48:54 10° NE 16:53:47 46° ESE 16:57:33 17° S
PAYLOAD B 4.1 16:51:56 10° NNE 16:57:29 83° WNW 16:57:38 82° WSW
Lacrosse 5 rocket 3.2 16:56:45 21° NNE 16:57:44 24° NE 17:00:56 10° ESE
Timation 2 Rocket 4.1 17:07:22 52° WSW 17:08:56 65° WNW 17:15:44 10° N
Cosmos 1656 4.1 17:07:19 10° N 17:12:48 62° ENE 17:18:26 10° SSE
Okean 2 3.3 17:13:36 10° N 17:17:44 87° ENE 17:21:57 10° S
Cosmos 2227 Rocket 2.6 17:14:30 25° SSW 17:17:54 64° ESE 17:23:31 10° NE
Cosmos 2180 Rocket 4.5 17:13:55 20° SSW 17:18:25 64° W 17:24:44 10° N
Cosmos 1733 3.7 17:19:54 49° N 17:19:54 49° N 17:22:48 10° N
Cosmos 1271 Rocket 2.9 17:19:10 10° N 17:22:56 68° E 17:26:47 10° SSE
Cosmos 921 Rocket 3.2 17:19:51 10° N 17:24:03 68° ENE 17:28:17 10° SSE
Cosmos 2219 3.1 17:26:08 32° SSW 17:28:56 79° WNW 17:34:42 10° NNE
NOAA 6 4.3 17:27:45 10° N 17:32:37 42° W 17:32:37 42° W
Okean O Rocket 1.7 17:30:09 10° N 17:34:30 53° W 17:35:01 50° WSW
Cosmos 1544 Rocket 4.2 17:31:14 10° S 17:35:35 55° E 17:39:52 10° NNE
NOSS 3-1 (C) 4.3 17:31:45 17° SSW 17:36:28 44° SE 17:41:49 10° ENE
BREEZE-M DEB (TANK) 4.3 17:33:10 30° W 17:37:36 55° SSW 17:41:28 10° ESE
Cosmos 1980 Rocket 4.2 17:33:50 10° NNE 17:38:37 29° ENE 17:43:25 10° SE
Cosmos 1758 4.2 17:35:40 10° S 17:39:40 51° ESE 17:43:37 10° NNE
CZ-4 R/B 3.6 17:37:33 10° ENE 17:41:01 26° ESE 17:44:33 10° S
SMAP 3.0 17:36:52 10° N 17:41:32 66° WNW 17:44:43 21° SSW
ADEOS Rocket 3.3 17:36:26 10° SSE 17:42:02 61° ENE 17:47:29 10° N
USA 267 3.8 17:37:09 10° SE 17:43:13 41° SSW 17:45:54 28° WSW
SJ 16-02 2.4 17:41:02 10° S 17:45:18 45° ESE 17:49:34 10° NE
Cosmos 1707 3.6 17:42:23 10° N 17:46:13 52° E 17:50:07 10° SSE
AQUARIUS 4.1 17:42:35 10° N 17:47:04 64° WNW 17:50:25 18° SSW
Cosmos 1777 Rocket 4.4 17:46:11 34° WSW 17:47:30 40° WNW 17:52:21 10° N
Cosmos 1025 Rocket 3.8 17:45:42 10° N 17:49:54 53° E 17:54:09 10° SSE
Cosmos 1689 Rocket 3.2 17:52:04 31° NW 17:52:04 31° NW 17:53:50 10° NNW
Cosmos 192 4.4 17:45:55 10° NNW 17:50:52 85° ENE 17:55:53 10° SSE
USA 229 DEB 4.3 17:45:06 14° SSW 17:50:58 50° SE 17:57:19 10° ENE
USA 229 4.3 17:45:12 14° SSW 17:51:05 50° SE 17:57:26 10° ENE
Cosmos 1939 Rocket 4.3 17:49:30 10° NE 17:53:13 37° ESE 17:57:02 10° S
Feng Yun 1-1 Rocket 4.2 17:48:38 10° NNE 17:54:04 87° WNW 17:59:42 10° SSW
Okean-O 3.5 17:50:18 10° NE 17:54:37 49° ESE 17:58:59 10° S
Cosmos 2026 Rocket 4.1 17:50:07 10° N 17:56:13 77° E 18:02:27 10° S
CZ-4B R/B 3.7 17:51:27 10° NNW 17:56:29 37° W 17:59:56 19° SW
Cosmos 1375 Rocket 4.5 17:51:53 16° SSW 17:57:04 88° ESE 18:03:27 10° NNE
Cosmos 1092 Rocket 3.9 17:52:33 10° NNW 17:58:49 78° W 18:05:07 10° S
Helios 1A Rocket 2.8 17:57:16 10° N 18:01:20 72° WNW 18:05:29 10° SSW
NOSS 3-1 (A) 4.4 17:56:48 11° SSW 18:02:48 42° SE 18:08:07 10° ENE
YAOGAN 6 3.0 17:59:27 10° NNW 18:02:54 39° W 18:04:11 29° SW
H-2A R/B 4.4 18:00:19 10° ENE 18:03:44 19° ESE 18:07:10 10° SSE
CORIOLIS 4.3 17:59:46 10° N 18:05:05 52° W 18:10:27 10° SSW
SKYMED 2 3.7 18:04:57 10° SSE 18:09:24 78° ENE 18:13:47 10° N
Cosmos 1697 Rocket 2.6 18:03:49 10° NNW 18:09:28 86° WSW 18:15:11 10° SSE
Cosmos 1726 2.8 18:07:01 10° S 18:10:44 57° E 18:14:24 10° NNE
Cosmos 1975 Rocket 3.9 18:12:06 10° NW 18:16:03 29° WSW 18:20:04 10° SSW
CZ-4C R/B 3.6 18:12:04 17° W 18:16:45 31° SW 18:22:38 10° SSE
Cosmos 2297 Rocket 2.8 18:14:15 16° SW 18:18:16 37° WNW 18:23:26 10° N
USA 234 3.9 18:12:35 10° NNE 18:18:35 38° NW 18:23:27 15° WSW
ATLAS 2AS CENTAUR R/B 4.4 18:18:11 10° SSW 18:20:38 12° S 18:23:07 10° SSE
Cosmos 1842 4.5 18:18:18 10° NW 18:21:26 22° WSW 18:24:35 10° SSW
PSLV R/B 4.2 18:20:31 10° S 18:24:31 46° WSW 18:28:29 10° NW
IRS-1C Rocket 4.3 18:20:23 10° N 18:25:32 51° W 18:30:44 10° SSW
ARGOS Delta rocket 4.2 18:21:55 10° N 18:27:00 49° W 18:31:53 10° SSW
Cosmos 1953 2.3 18:25:37 10° S 18:29:45 83° W 18:33:47 10° N
Cosmos 1455 Rocket 4.0 18:27:25 10° SSW 18:31:09 26° W 18:34:50 10° NW
Envisat 4.1 18:28:59 10° NW 18:33:00 23° W 18:37:04 10° SW
Cosmos 1470 3.7 18:32:50 10° SSW 18:36:15 27° W 18:39:36 10° NNW
Lacrosse 5 rocket 1.5 18:32:57 10° WNW 18:36:39 45° SW 18:40:35 10° SE
USA 116 3.7 18:36:41 10° SSE 18:39:53 64° ENE 18:43:00 10° N
Cosmos 1553 Rocket 4.1 18:42:22 10° SSW 18:48:51 71° W 18:55:13 10° N
Cosmos 1437 3.3 18:48:54 10° N 18:51:54 58° E 18:54:56 10° SSE
Cosmos 1570 Rocket 4.2 18:48:06 10° NNW 18:53:28 85° ENE 18:58:56 10° SSE
COSMO-SKYMED 1 3.3 18:53:20 10° S 18:57:19 33° WSW 19:01:16 10° NW
S3M 4.0 18:51:14 10° S 18:57:27 83° W 19:03:35 10° N
Cosmos 1898 Rocket 3.8 18:52:32 10° SSW 18:57:42 50° WNW 19:02:50 10° N
Cosmos 2082 4.4 18:55:15 10° SW 19:00:27 35° WNW 19:05:36 10° NNW
Cosmos 2227 Rocket 3.6 18:57:25 10° SW 19:01:23 20° W 19:05:20 10° NW
Cosmos 2098 Rocket 4.1 18:59:52 10° N 19:04:28 64° E 19:10:23 10° SSE
Meteor 2-5 Rocket 4.1 19:00:06 10° N 19:05:43 72° E 19:11:20 10° SSE
Cosmos 2369 4.3 19:00:45 10° WNW 19:06:01 36° SW 19:11:19 10° S
Cosmos 2263 Rocket 2.6 19:01:26 10° SSW 19:07:12 68° ESE 19:12:54 10° NNE
NOSS 2-3 (E) 4.4 19:00:38 10° SW 19:07:42 82° NW 19:13:00 10° NNE
